FW3609 Weather Reports


time (UTC)temp
C
wind
direction
speed
KPH
gust
KPH
rain 1hr
cm
rain 24hr
cm
rain mn
cm
humidity
%
barometer
mb
20220124101623 0 5 0.0 11.3 0.00 0.00 0.00 69 1013.6
20220124100026 0 278 0.0 6.4 0.00 0.00 0.00 71 1013.6
20220124094522 0 310 0.0 6.4 0.00 0.00 0.00 72 1013.3
20220124093131 0 289 3.2 8.0 0.00 0.00 0.00 72 1012.9
20220124091548 0 10 0.0 0.0 0.00 0.00 0.00 79 1012.8
20220124090051 0 130 0.0 0.0 0.00 0.00 0.00 80 1012.7
20220124084657 0 131 0.0 0.0 0.00 0.00 0.00 80 1012.4
20220124083200 -1 130 0.0 0.0 0.00 0.00 0.00 80 1012.4
20220124081550 -1 130 0.0 0.0 0.00 0.00 0.00 79 1012.3
20220124080021 -1 131 0.0 0.0 0.00 0.00 0.00 80 1012.2
20220124074536 -1 131 0.0 0.0 0.00 0.00 0.00 80 1012.1
20220124073146 0 131 0.0 0.0 0.00 0.00 0.00 79 1011.9
20220124071644 0 131 0.0 0.0 0.00 0.00 0.00 77 1011.7
20220124064611 0 130 0.0 0.0 0.00 0.00 0.00 74 1011.4
20220124063042 0 131 0.0 0.0 0.00 0.00 0.00 71 1011.4
20220124054614 0 126 0.0 0.0 0.00 0.00 0.00 81 1011.4
20220124053109 0 126 0.0 0.0 0.00 0.00 0.00 81 1011.2
20220124051517 0 122 0.0 0.0 0.00 0.00 0.00 78 1011.4
20220124050121 0 114 0.0 0.0 0.00 0.00 0.00 83 1011.4
20220124044541 -1 113 0.0 0.0 0.00 0.00 0.00 77 1011.3
20220124043055 -1 113 0.0 0.0 0.00 0.00 0.00 75 1011.2
20220124041533 0 110 0.0 0.0 0.00 0.00 0.00 74 1011.1
20220124040013 -1 110 0.0 0.0 0.00 0.00 0.00 74 1011.0
20220124034648 0 110 0.0 0.0 0.00 0.00 0.00 73 1011.0
20220124033137 0 110 0.0 0.0 0.00 0.00 0.00 72 1011.0
20220124031630 1 104 0.0 0.0 0.00 0.00 0.00 71 1010.9
20220124030025 0 8 0.0 0.0 0.00 0.00 0.00 70 1010.8
20220124024505 0 7 0.0 0.0 0.00 0.00 0.00 69 1010.7
20220124023233 0 134 0.0 0.0 0.00 0.00 0.00 68 1010.7
20220124021525 1 134 0.0 0.0 0.00 0.00 0.00 81 1010.6
20220124020216 0 356 0.0 0.0 0.00 0.00 0.00 67 1010.6
20220124014624 0 346 0.0 0.0 0.00 0.00 0.00 66 1010.7
20220124013034 0 345 0.0 0.0 0.00 0.00 0.00 65 1010.6
20220124011531 0 119 0.0 0.0 0.00 0.00 0.00 68 1010.4
20220124010152 0 122 0.0 0.0 0.00 0.00 0.00 64 1010.5
20220124004601 0 122 0.0 0.0 0.00 0.00 0.00 65 1010.4
20220124003047 0 122 0.0 0.0 0.00 0.00 0.00 62 1010.4
20220124001508 0 122 0.0 0.0 0.00 0.00 0.00 60 1010.4
20220124000122 1 122 0.0 0.0 0.00 0.00 0.00 55 1010.3
20220123234540 2 122 0.0 0.0 0.00 0.00 0.00 51 1010.3
20220123233037 3 118 0.0 0.0 0.00 0.00 0.00 54 1010.3
20220123231807 3 195 0.0 0.0 0.00 0.00 0.00 53 1010.3
20220123230039 3 195 0.0 0.0 0.00 0.00 0.00 88 1010.2
20220123224546 2 210 0.0 3.2 0.00 0.00 0.00 50 1010.1
20220123223039 2 194 0.0 3.2 0.00 0.00 0.00 49 1010.1
20220123221528 2 193 1.6 4.8 0.00 0.00 0.00 48 1010.2
20220123220226 2 220 0.0 6.4 0.00 0.00 0.00 48 1010.4
20220123214635 2 204 0.0 4.8 0.00 0.00 0.00 48 1010.3
20220123213043 2 210 0.0 6.4 0.00 0.00 0.00 55 1010.5
20220123211558 2 195 1.6 6.4 0.00 0.00 0.00 46 1010.6
20220123210007 2 202 3.2 8.0 0.00 0.00 0.00 45 1010.7
20220123204609 2 160 0.0 6.4 0.00 0.00 0.00 46 1010.9
20220123203034 2 148 1.6 8.0 0.00 0.00 0.00 44 1010.8
20220123201520 2 162 0.0 8.0 0.00 0.00 0.00 44 1011.1
20220123200150 2 211 4.8 9.7 0.00 0.00 0.00 43 1011.1
20220123194557 3 281 3.2 8.0 0.00 0.00 0.00 43 1011.3
20220123193112 2 201 3.2 11.3 0.00 0.00 0.00 44 1011.9
20220123191510 2 217 3.2 11.3 0.00 0.00 0.00 44 1012.1
20220123190045 2 192 6.4 11.3 0.00 0.00 0.00 43 1012.1
20220123184540 2 148 4.8 11.3 0.00 0.00 0.00 43 1012.4
20220123183121 2 188 3.2 11.3 0.00 0.00 0.00 43 1012.6
20220123181511 2 179 3.2 9.7 0.00 0.00 0.00 45 1012.9
20220123180012 2 196 4.8 12.9 0.00 0.00 0.00 45 1013.1
20220123174617 2 205 3.2 9.7 0.00 0.00 0.00 46 1013.2
20220123173107 2 186 0.0 9.7 0.00 0.00 0.00 50 1013.6
20220123171620 2 125 4.8 9.7 0.00 0.00 0.00 49 1014.0
20220123170109 2 239 3.2 11.3 0.00 0.00 0.00 51 1014.2
20220123164537 2 143 4.8 11.3 0.00 0.00 0.00 51 1015.0
20220123163043 2 168 1.6 6.4 0.00 0.00 0.00 53 1015.3
20220123160048 1 130 1.6 8.0 0.00 0.00 0.00 57 1016.3
20220123154520 0 117 1.6 8.0 0.00 0.00 0.00 58 1016.4
20220123151604 0 138 4.8 9.7 0.00 0.00 0.00 60 1016.6
20220123150032 -1 207 1.6 4.8 0.00 0.00 0.00 62 1016.9
20220123144511 -1 253 0.0 4.8 0.00 0.00 0.00 64 1017.0
20220123143129 -2 219 0.0 4.8 0.00 0.00 0.00 66 1017.1
20220123141632 -1 112 0.0 0.0 0.00 0.00 0.00 66 1017.2
20220123140025 -1 219 1.6 8.0 0.00 0.00 0.00 66 1017.5
20220123134502 -2 110 0.0 3.2 0.00 0.00 0.00 68 1017.6
20220123133123 -1 139 0.0 0.0 0.00 0.00 0.00 69 1017.9
20220123131547 -1 134 0.0 0.0 0.00 0.00 0.00 71 1017.9
20220123130046 -3 131 0.0 1.6 0.00 0.00 0.00 84 1018.1
20220123124611 -5 198 0.0 1.6 0.00 0.00 0.00 78 1018.1
20220123123050 -6 200 0.0 0.0 0.00 0.00 0.00 82 1018.3
20220123121552 -6 200 0.0 0.0 0.00 0.00 0.00 85 1018.6
20220123114738 -7 200 0.0 0.0 0.00 0.00 0.00 82 1018.7
20220123113051 -7 200 0.0 0.0 0.00 0.00 0.00 85 1018.7
20220123111539 -7 200 0.0 0.0 0.00 0.00 0.00 79 1018.7
20220123110045 -6 200 0.0 0.0 0.00 0.00 0.00 80 1018.7
20220123104546 -5 200 0.0 0.0 0.00 0.00 0.00 79 1018.9
20220123103012 -4 197 0.0 0.0 0.00 0.00 0.00 85 1018.7